Location: Ferchesar
(52.6477°N, 12.4298°E)
Time: 07:28:12
(UTC+01:00)

S-56A Canister/Altair - All Passes

Search period start: 07 December 2021 00:00
Search period end: 17 December 2021 00:00
Orbit: 633 x 2500 km, 38.9° (Epoch: 06 December)

Date Brightness Start Highest point End Pass type
(mag) Time Alt. Az. Time Alt. Az. Time Alt. Az.
07 Dec - 00:38:57 10° SW 00:46:45 29° S 00:52:23 10° ESE night (unlit)
07 Dec - 02:44:04 10° WSW 02:49:39 22° SSW 02:53:58 10° SSE night (unlit)
07 Dec - 22:02:36 10° SSW 22:10:28 21° SSE 22:16:40 10° ESE visible
08 Dec - 00:05:37 10° SW 00:14:03 30° S 00:20:09 10° ESE night (unlit)
08 Dec - 02:10:42 10° WSW 02:17:08 25° SSW 02:21:58 10° SE night (unlit)
08 Dec - 21:29:33 10° SSW 21:37:38 21° SSE 21:44:04 10° ESE visible
08 Dec - 23:32:15 10° SW 23:41:19 31° S 23:47:51 10° ESE night (unlit)
09 Dec - 01:37:17 10° WSW 01:44:35 27° SSW 01:49:55 10° SE night (unlit)
09 Dec - 03:44:18 10° WSW 03:46:51 12° SW 03:49:08 10° SSW night (unlit)
09 Dec - 20:56:35 10° S 21:04:44 20° SSE 21:11:24 10° ESE visible
09 Dec - 22:58:52 10° SW 23:08:31 31° S 23:15:31 10° ESE visible
10 Dec - 01:03:51 10° WSW 01:11:58 30° SSW 01:17:48 10° SE night (unlit)
10 Dec - 03:10:21 10° WSW 03:14:26 15° SW 03:17:51 10° S night (unlit)
10 Dec - 20:23:41 10° S 20:31:50 19° SSE 20:38:36 10° ESE visible
10 Dec - 22:25:30 10° SW 22:35:40 31° SSE 22:43:07 10° ESE visible
11 Dec - 00:30:22 10° WSW 00:39:18 32° S 00:45:38 10° SE night (unlit)
11 Dec - 02:36:38 10° WSW 02:41:58 18° SSW 02:46:14 10° S night (unlit)
11 Dec - 19:50:54 10° S 19:58:53 18° SE 20:05:41 10° ESE visible
11 Dec - 21:52:09 10° SW 22:02:45 31° SSE 22:10:39 10° ESE visible
11 Dec - 23:56:51 10° WSW 00:06:33 34° S 00:13:25 10° SE night (unlit)
12 Dec - 02:03:00 10° WSW 02:09:28 22° SSW 02:14:26 10° SSE night (unlit)
12 Dec - 19:18:16 10° S 19:25:55 17° SE 19:32:37 10° ESE visible
12 Dec - 21:18:49 10° SW 21:29:47 31° SSE 21:38:07 10° ESE visible
12 Dec - 23:23:20 10° WSW 23:33:45 36° S 23:41:08 10° ESE visible
13 Dec - 01:29:22 10° WSW 01:36:55 25° SSW 01:42:32 10° SSE night (unlit)
13 Dec - 18:45:50 10° S 18:52:57 16° SE 18:59:21 10° ESE visible
13 Dec - 20:45:33 10° SSW 20:56:47 31° SSE 21:05:31 10° ESE visible
13 Dec - 22:49:48 10° WSW 23:00:52 38° S 23:08:48 10° ESE visible
14 Dec - 00:55:44 10° WSW 01:04:17 28° SSW 01:10:31 10° SSE night (unlit)
14 Dec - 03:05:39 10° SW 03:06:19 10° SW 03:06:58 10° SW night (unlit)
14 Dec - 18:13:38 10° SSE 18:19:58 14° SE 18:25:49 10° ESE visible
14 Dec - 20:12:21 10° SSW 20:23:43 30° SSE 20:32:50 10° ESE visible
14 Dec - 22:16:16 10° WSW 22:27:56 39° S 22:36:24 10° ESE visible
15 Dec - 00:22:06 10° WSW 00:31:36 31° SSW 00:38:25 10° SE night (unlit)
15 Dec - 02:30:05 10° WSW 02:33:52 13° SW 02:37:09 10° SSW night (unlit)
15 Dec - 17:41:50 10° SSE 17:47:00 13° SE 17:51:54 10° ESE visible
15 Dec - 19:39:13 10° SSW 19:50:38 29° SSE 20:00:03 10° E visible
15 Dec - 21:42:46 10° SW 21:54:56 39° S 22:03:56 10° ESE visible
15 Dec - 23:48:28 10° WSW 23:58:49 34° SSW 00:06:15 10° SE visible
16 Dec - 01:55:51 10° WSW 02:01:23 17° SW 02:05:54 10° S night (unlit)
16 Dec - 17:10:51 10° SE 17:14:03 11° SE 17:17:11 10° ESE visible
16 Dec - 19:06:12 10° SSW 19:17:32 28° SSE 19:27:11 10° E visible
16 Dec - 21:09:18 10° SW 21:21:52 40° S 21:31:24 10° ESE visible
16 Dec - 23:14:49 10° WSW 23:25:58 37° SSW 23:34:00 10° SE visible
